Powrót do katalogu

SSU 1 DEB

AktywnyPO
NORAD 7938·DEBRIS·🇺🇸 United States

Wystrzelony Jun 8, 1975 z Vandenberg Space Force Base

Loading…

Następne Przeloty (najbliższe 24 godziny)

TLE

ŚwieżeSource: Space-Track

Epoka: Sep 14, 2026, 02:08 UTC

1 07938U 75051D   26257.08899407  .00000037  00000-0  22897-3 0  9993
2 07938  94.9785 123.8164 0039713  76.7165  77.8726 12.72244283379473

Śledź SSU 1 DEB w czasie rzeczywistym z AllMySat

Download on the App Store